Hilton Head Weather Center

Moon Phase Calendar



Online Cameras

 


      

Current Conditions in Hilton Head
1/23/2021 8:38:36 PM

46°F
Feels Like 40
Clear
Humidity
87%
Pressure
30.21"
Wind
7.5 mph (NE)
Dew Point
43°F
UV Index
0/10 (Low)
Visibility
6 mi

Hourly Forecast

Date & Time Sat, Jan 23
8:00 PM
Sat, Jan 23
9:00 PM
Sat, Jan 23
10:00 PM
Sat, Jan 23
11:00 PM
Sun, Jan 24
12:00 AM
Sun, Jan 24
1:00 AM
Sun, Jan 24
2:00 AM
Sun, Jan 24
3:00 AM
Sun, Jan 24
4:00 AM
Sun, Jan 24
5:00 AM
Sun, Jan 24
6:00 AM
Sun, Jan 24
7:00 AM
Sun, Jan 24
8:00 AM
Sun, Jan 24
9:00 AM
Sun, Jan 24
10:00 AM
Sun, Jan 24
11:00 AM
Sun, Jan 24
12:00 PM
Sun, Jan 24
1:00 PM
Sun, Jan 24
2:00 PM
Sun, Jan 24
3:00 PM
Sun, Jan 24
4:00 PM
Sun, Jan 24
5:00 PM
Sun, Jan 24
6:00 PM
Sun, Jan 24
7:00 PM
Sun, Jan 24
8:00 PM
Sun, Jan 24
9:00 PM
Sun, Jan 24
10:00 PM
Sun, Jan 24
11:00 PM
Mon, Jan 25
12:00 AM
Mon, Jan 25
1:00 AM
Mon, Jan 25
2:00 AM
Mon, Jan 25
3:00 AM
Mon, Jan 25
4:00 AM
Mon, Jan 25
5:00 AM
Mon, Jan 25
6:00 AM
Mon, Jan 25
7:00 AM
Mon, Jan 25
8:00 AM
Mon, Jan 25
9:00 AM
Mon, Jan 25
10:00 AM
Mon, Jan 25
11:00 AM
Mon, Jan 25
12:00 PM
Mon, Jan 25
1:00 PM
Mon, Jan 25
2:00 PM
Mon, Jan 25
3:00 PM
Mon, Jan 25
4:00 PM
Mon, Jan 25
5:00 PM
Mon, Jan 25
6:00 PM
Mon, Jan 25
7:00 PM
Condition
Clear

Clear

Clear

Clear

Clear

Clouds

Clouds

Clouds

Clouds

Clouds

Clouds

Clouds

Clouds

Clouds

Clouds

Clouds

Clouds

Clouds

Clear

Clear

Clear

Clear

Clear

Clear

Clouds

Clouds

Clouds

Clouds

Clouds

Clouds

Clouds

Clouds

Clouds

Clouds

Clouds

Clouds

Clouds

Clouds

Clouds

Clouds

Clouds

Clouds

Clouds

Clouds

Clouds

Clouds

Clouds

Clouds
Temperature 46°F47°F47°F47°F46°F46°F46°F46°F45°F45°F45°F46°F47°F48°F50°F54°F57°F57°F58°F57°F57°F56°F54°F54°F54°F55°F56°F56°F56°F56°F56°F56°F57°F58°F58°F59°F59°F61°F62°F63°F64°F66°F65°F66°F65°F64°F63°F63°F
Feels Like 40°F40°F38°F37°F36°F36°F36°F36°F35°F35°F36°F37°F39°F41°F44°F48°F51°F52°F52°F52°F52°F52°F50°F50°F51°F52°F53°F53°F53°F53°F53°F53°F54°F55°F56°F57°F57°F58°F58°F58°F59°F60°F59°F60°F60°F60°F59°F61°F
Cloudiness 1%1%3%4%8%13%75%76%84%87%90%92%98%99%98%90%74%62%0%0%0%0%2%6%42%61%74%68%71%70%59%69%76%82%86%88%100%100%100%100%100%92%74%64%56%50%48%56%
Visibility 6 mi6 mi6 mi6 mi6 mi6 mi6 mi6 mi6 mi6 mi6 mi6 mi6 mi6 mi6 mi6 mi6 mi6 mi6 mi6 mi6 mi6 mi6 mi6 mi6 mi6 mi6 mi6 mi6 mi6 mi6 mi6 mi6 mi6 mi6 mi6 mi6 mi6 mi6 mi6 mi6 mi6 mi6 mi6 mi6 mi6 mi6 mi6 mi
Precipitation 0%0%0%0%0%0%0%0%0%0%0%0%0%0%0%0%0%0%0%0%0%0%0%0%0%0%0%0%0%0%0%0%0%0%0%0%11%11%11%4%4%1%22%18%18%11%11%7%
Humidity 87%74%62%57%56%58%60%58%59%60%63%65%68%70%70%67%65%66%68%71%73%77%83%85%86%85%83%84%87%89%90%91%91%90%91%91%91%89%86%87%85%82%84%83%85%88%91%90%
Dew Point 43°F39°F35°F32°F31°F32°F33°F32°F31°F32°F34°F35°F37°F39°F41°F43°F45°F46°F47°F48°F49°F49°F49°F50°F50°F50°F51°F51°F52°F53°F53°F54°F54°F55°F56°F56°F57°F57°F58°F59°F60°F60°F60°F60°F61°F61°F60°F60°F
Pressure 30.21"30.24"30.27"30.27"30.27"30.27"30.27"30.27"30.27"30.27"30.27"30.27"30.27"30.27"30.3"30.27"30.27"30.24"30.21"30.18"30.18"30.18"30.18"30.18"30.18"30.18"30.18"30.15"30.12"30.12"30.12"30.09"30.06"30.06"30.06"30.06"30.06"30.03"30.03"30.03"30"29.97"29.94"29.91"29.91"29.91"29.94"29.94"
Wind Speed 8 mph7.5 mph9.7 mph10.5 mph10.5 mph11.6 mph11.4 mph10.5 mph10.8 mph10 mph10.1 mph9.9 mph8.7 mph9.1 mph7.9 mph8.3 mph8.3 mph8 mph8 mph9.4 mph8.9 mph7.8 mph6.9 mph6.4 mph5.2 mph5.4 mph4.7 mph6.6 mph6.6 mph6.9 mph6.9 mph6.6 mph6.7 mph8.2 mph6.8 mph7.1 mph8.3 mph9.7 mph11.8 mph13 mph14.7 mph15.6 mph15.4 mph16.2 mph14.9 mph13.4 mph11.9 mph10.2 mph
Wind
Direction
58°
ENE
46°
NE
50°
NE
50°
NE
47°
NE
44°
NE
47°
NE
34°
NE
35°
NE
37°
NE
43°
NE
48°
NE
49°
NE
57°
ENE
55°
NE
73°
ENE
86°
E
90°
E
95°
E
97°
E
88°
E
87°
E
83°
E
79°
E
86°
E
85°
E
107°
ESE
125°
SE
157°
SSE
176°
S
180°
S
193°
SSW
191°
S
184°
S
185°
S
182°
S
177°
S
176°
S
181°
S
184°
S
189°
S
192°
SSW
194°
SSW
192°
SSW
194°
SSW
199°
SSW
205°
SSW
197°
SSW

Daily Forecast

Date High Low Precip. Humidity
Today
Jan 23

Clear
55 °F
45 °F
0%
62%
Sunday
Jan 24

Clouds
58 °F
45 °F
0%
65%
Monday
Jan 25

Rain
66 °F
56 °F
21%
82%
Tuesday
Jan 26

Rain
71 °F
61 °F
96%
81%
Wednesday
Jan 27

Rain
65 °F
61 °F
100%
92%
Thursday
Jan 28

Rain
63 °F
47 °F
100%
54%
Friday
Jan 29

Clear
52 °F
40 °F
0%
47%
Saturday
Jan 30

Clear
52 °F
40 °F
0%
46%
Sunday
Jan 31

Clear
62 °F
49 °F
0%
62%
Monday
Feb 1

Clouds
65 °F
54 °F
0%
60%
Tuesday
Feb 2

Clouds
68 °F
55 °F
0%
62%
Wednesday
Feb 3

Clouds
67 °F
57 °F
0%
70%
Thursday
Feb 4

Rain
66 °F
60 °F
67%
82%
Friday
Feb 5

Rain
65 °F
50 °F
99%
49%
Saturday
Feb 6

Clouds
56 °F
42 °F
0%
43%
Sunday
Feb 7

Clear
58 °F
44 °F
0%
58%


Temperature 8-14 Day Outlook



Precipitation 8-14 Day Outlook




Quick Links
Hilton Head News
Hilton Head Photos
Hilton Head Videos




About Us
Contact Us
Site Map
Search Site
Advertise With Us
   
HiltonHead.USCoast.info
THE HILTON HEAD WEBSITE

Copyright 2021, Coastal Town
Privacy    |    Legal